Tracking 19644 objects as of 25-Apr-2019
HD Live streaming from Space Station
objects crossing your sky now

CZ-4 DEB


CZ-4 DEB is no longer on orbit


NORAD ID: 26130
Int'l Code: 1999-057S
Perigee: N/A
Apogee: N/A
Inclination: N/A
Period: N/A
Semi major axis: N/A
RCS: N/A
Launch date: October 14, 1999
Source: People's Republic of China (PRC)
Launch site: Taiyaun Space Center, China (TSC)
Decay date: 2011-08-06

Note: This is SATELLITE DEBRIS
aabbcc
Your satellite tracking list
Your tracking list is empty




NASA's NSSDC Master Catalog

Two Line Element Set (TLE):
1 26130U 99057S   11218.40988067  .99999999  34451-5  10487-1 0  9992
2 26130 098.3329 172.8620 0012398 211.3362 167.4934 16.38020184614317
Source of the keplerian elements: AFSPC